This is the latest recevied weather packets stored in our database for station/object N7WLC. If no packets are shown the sender has not sent any weather packets the latest 10 day(s).
| Time | Temp. | Humidity | Pressure | Rain* | Wind** | Luminosity | Snow |
|---|---|---|---|---|---|---|---|
| 1777634304 | 12.22° C | 95% | 1013 hPa | 0 mm | 0 m/s | - | - |
| 1777632503 | 12.22° C | 96% | 1013.1 hPa | 0 mm | 0 m/s | - | - |
| 1777630704 | 11.67° C | 97% | 1013.2 hPa | 0 mm | 0 m/s | - | - |
| 1777628904 | 11.11° C | 96% | 1013 hPa | 0 mm | 0 m/s | - | - |
| 1777627104 | 11.67° C | 96% | 1013.2 hPa | 0 mm | 0 m/s | - | - |
| 1777625304 | 12.22° C | 95% | 1013.5 hPa | 0 mm | 0 m/s | - | - |
| 1777623504 | 12.22° C | 93% | 1013.5 hPa | 0 mm | 0.45 m/s, 262° | - | - |
| 1777621704 | 12.22° C | 92% | 1013.7 hPa | 0 mm | 0 m/s | - | - |
| 1777619904 | 13.33° C | 89% | 1013.3 hPa | 0 mm | 0 m/s | - | - |
| 1777618104 | 13.33° C | 91% | 1013 hPa | 0 mm | 0 m/s | - | - |
| 1777616304 | 12.78° C | 91% | 1013 hPa | 0 mm | 0.45 m/s, 262° | - | - |
| 1777614504 | 12.78° C | 89% | 1013 hPa | 0 mm | 0 m/s | - | - |
| 1777612703 | 13.33° C | 88% | 1012.8 hPa | 0 mm | 0 m/s | - | - |
| 1777610904 | 13.89° C | 84% | 1012.3 hPa | 0 mm | 0 m/s | - | - |
| 1777609103 | 14.44° C | 82% | 1012 hPa | 0 mm | 0 m/s | - | - |
| 1777607304 | 15.56° C | 79% | 1011.6 hPa | 0 mm | 0 m/s | - | - |
| 1777605503 | 16.11° C | 74% | 1011.3 hPa | 0 mm | 0 m/s | - | - |
| 1777603704 | 16.67° C | 71% | 1011.2 hPa | 0 mm | 0 m/s | - | - |
| 1777601903 | 17.78° C | 66% | 1010.9 hPa | 0 mm | 0 m/s | - | - |
| 1777600104 | 18.33° C | 61% | 1010.7 hPa | 0 mm | 0 m/s | - | - |
| 1777598303 | 18.89° C | 58% | 1010.9 hPa | 0 mm | 0 m/s | - | - |
| 1777596504 | 18.89° C | 58% | 1010.7 hPa | 0 mm | 0.45 m/s, 281° | - | - |
| 1777594704 | 19.44° C | 56% | 1011 hPa | 0 mm | 0 m/s | - | - |
| 1777592904 | 20.56° C | 57% | 1010.7 hPa | 0 mm | 0 m/s | - | - |
| 1777591103 | 20.56° C | 54% | 1010.5 hPa | 0 mm | 0 m/s | - | - |
* Rain latest hour (hover to see other rain measurements)
** Current wind speed in m/s (hover to see current wind gust speed)